Weather History for Bedford, MA

Change the Weather History Date:

Friday, September 20, 2013

  Actual Average Record
Temperature  
Mean Temperature 60 °F -  
Max Temperature 79 °F 71 °F 92 °F (1983)
Min Temperature 42 °F 48 °F 29 °F (1993)
Degree Days  
Heating Degree Days 4    
Growing Degree Days 10 (Base 50)    
Moisture  
Dew Point 50 °F    
Average Humidity 81    
Maximum Humidity 100    
Minimum Humidity 42    
Precipitation  
Precipitation 0.01 in - - ()
Sea Level Pressure  
Sea Level Pressure 30.06 in    
Wind  
Wind Speed 1 mph (SE)    
Max Wind Speed 10 mph    
Max Gust Speed -    
Visibility 8 miles    
Events Fog    
Averages and records for this station are not official NWS values.
T = Trace of Precipitation, MM = Missing Value Source: NWS Daily Summary

Daily Weather History Graph

Daily Weather History Graph

Search for Another Location

Airport:

Trip Planner

Search our weather history database for the weather conditions in past years. The results will help you decide how hot, cold, wet, or windy it might be!

Date:

Astronomy

Sep. 20, 2013 Rise Set
Actual Time 6:30 AM EDT 6:45 PM EDT
Civil Twilight 6:02 AM EDT 7:13 PM EDT
Nautical Twilight 5:29 AM EDT 7:46 PM EDT
Astronomical Twilight 4:55 AM EDT 8:20 PM EDT
Moon 7:14 PM EDT 7:44 AM EDT
Length of Visible Light 13h 11m
Length of Day
12h 15m
Full, 98% of the Moon is Illuminated
Sep 20
Full
Sep 26
Last Quarter
Oct 4
New
Oct 11
First Quarter
Oct 18
Full

Hourly Weather History & Observations

Time (EDT) Temp. Windchill Dew Point Humidity Pressure Visibility Wind Dir Wind Speed Gust Speed Precip Events Conditions
12:56 AM 51.1 °F - 50.0 °F 96% 30.08 in 10.0 mi Calm Calm - N/A   Clear
1:56 AM 50.0 °F - 48.9 °F 96% 30.09 in 10.0 mi Calm Calm - N/A   Clear
2:56 AM 48.0 °F - 46.9 °F 96% 30.08 in 10.0 mi Calm Calm - N/A   Clear
3:56 AM 48.0 °F - 46.9 °F 96% 30.08 in 10.0 mi Calm Calm - N/A   Clear
4:22 AM 46.4 °F - 46.4 °F 100% 30.04 in 10.0 mi Calm Calm - N/A   Partly Cloudy
4:42 AM 48.2 °F - 46.4 °F 93% 30.04 in 0.8 mi Calm Calm - N/A   Clear
4:56 AM 46.9 °F - 46.9 °F 100% 30.07 in 1.2 mi Calm Calm - N/A   Clear
5:00 AM 46.4 °F - 46.4 °F 100% 30.03 in 0.5 mi Calm Calm - N/A Fog Fog
5:09 AM 44.6 °F 42.2 °F 44.6 °F 100% 30.04 in 1.5 mi NNW 4.6 mph - N/A   Partly Cloudy
5:16 AM 44.6 °F - 44.6 °F 100% 30.03 in 10.0 mi Calm Calm - N/A   Clear
5:56 AM 46.9 °F - 46.9 °F 100% 30.09 in 6.0 mi Calm Calm - N/A   Clear
6:02 AM 42.8 °F - 42.8 °F 100% 30.05 in 1.5 mi Calm Calm - N/A   Clear
6:12 AM 44.6 °F - 44.6 °F 100% 30.05 in 0.8 mi Calm Calm - 0.01 in   Mist
6:26 AM 44.6 °F - 44.6 °F 100% 30.05 in 2.0 mi Calm Calm - 0.01 in   Partly Cloudy
6:35 AM 44.6 °F - 44.6 °F 100% 30.06 in 10.0 mi Calm Calm - 0.01 in   Partly Cloudy
6:56 AM 45.0 °F - 45.0 °F 100% 30.10 in 3.0 mi Calm Calm - 0.01 in   Clear
7:56 AM 50.0 °F - 50.0 °F 100% 30.11 in 10.0 mi Calm Calm - N/A   Clear
8:56 AM 59.0 °F - 54.0 °F 83% 30.11 in 10.0 mi NW 3.5 mph - N/A   Clear
9:56 AM 66.0 °F - 55.9 °F 70% 30.12 in 10.0 mi Calm Calm - N/A   Clear
10:56 AM 70.0 °F - 55.0 °F 59% 30.12 in 10.0 mi East 3.5 mph - N/A   Clear
11:56 AM 73.9 °F - 52.0 °F 46% 30.10 in 10.0 mi Calm Calm - N/A   Clear
12:56 PM 77.0 °F - 52.0 °F 42% 30.08 in 10.0 mi Variable 4.6 mph - N/A   Clear
1:56 PM 78.1 °F - 54.0 °F 43% 30.06 in 10.0 mi South 4.6 mph - N/A   Clear
2:56 PM 79.0 °F - 55.0 °F 44% 30.04 in 10.0 mi East 4.6 mph - N/A   Clear
3:56 PM 78.1 °F - 53.1 °F 42% 30.03 in 10.0 mi SSW 4.6 mph - N/A   Clear
4:56 PM 75.9 °F - 54.0 °F 46% 30.03 in 10.0 mi SE 10.4 mph - N/A   Clear
5:56 PM 73.0 °F - 54.0 °F 51% 30.04 in 10.0 mi ESE 8.1 mph - N/A   Clear
6:56 PM 68.0 °F - 54.0 °F 61% 30.04 in 10.0 mi SE 5.8 mph - N/A   Clear
7:56 PM 63.0 °F - 54.0 °F 72% 30.05 in 10.0 mi Calm Calm - N/A   Clear
8:56 PM 62.1 °F - 55.0 °F 78% 30.06 in 10.0 mi SSE 3.5 mph - N/A   Clear
9:56 PM 60.1 °F - 55.0 °F 83% 30.05 in 10.0 mi Calm Calm - N/A   Clear
10:56 PM 55.9 °F - 54.0 °F 93% 30.04 in 10.0 mi Calm Calm - N/A   Clear
11:56 PM 57.0 °F - 54.0 °F 89% 30.04 in 10.0 mi Calm Calm - N/A   Clear